Theta_e
352 350 349 348 339 339 338 335 338 343 346 347 349 348 348 347 347 345 343 342 341 340 341 340 340 339 339 338 336 333 333 333 330 332 337 340 339 340 341 339 341 339 339
345 342 340 336 335 335 333 334 336 336 338 345 346 347 347 347 346 344 343 343 340 338 339 338 338 341 337 337 336 333 332 333 331 328 333 337 336 337 336 336 336 336 333
344 337 335 333 335 334 334 333 335 337 338 337 339 344 345 346 345 345 344 342 341 340 340 338 337 338 336 336 336 336 336 336 335 331 331 334 334 334 335 336 335 335 333
339 336 334 332 331 333 334 335 336 337 335 335 334 343 345 344 344 344 343 340 339 340 340 339 338 337 338 336 336 337 336 336 336 336 331 331 330 333 331 330 329 332 331
335 336 335 334 335 335 333 334 335 332 332 334 332 344 343 343 345 343 343 341 339 338 339 340 339 340 338 336 338 335 334 333 331 330 328 328 328 330 330 329 329 328 330
332 332 332 333 334 333 334 334 334 333 332 333 341 343 340 346 335 333 339 340 340 338 337 338 339 340 338 333 334 335 336 334 331 329 328 327 327 329 329 326 325 325 323
333 332 332 330 329 329 331 331 331 334 338 339 341 340 338 340 330 327 332 342 340 340 339 338 338 342 337 338 333 332 332 332 333 334 328 328 327 329 329 324 323 324 324
332 332 331 330 329 328 330 331 334 335 333 335 337 339 339 340 326 324 327 337 338 339 341 340 339 339 337 337 335 332 334 335 335 336 333 332 332 332 334 332 328 326 326
328 329 332 332 331 330 329 329 330 332 333 334 338 339 338 339 327 321 325 333 334 337 337 338 339 338 331 325 334 330 329 331 327 324 327 327 326 325 329 329 325 324 323
327 328 330 331 332 330 329 329 330 331 332 335 336 336 331 337 322 319 320 334 333 335 336 336 329 334 325 320 333 334 331 332 330 327 326 325 324 325 325 333 329 325 322
325 325 327 325 328 329 329 330 330 330 330 332 333 334 334 334 335 320 314 333 336 336 334 334 335 322 316 314 318 335 334 334 329 330 327 327 327 329 330 328 330 329 321
321 324 323 322 325 328 327 329 329 330 329 329 331 333 335 335 314 317 311 313 321 334 336 337 334 314 313 309 314 317 313 319 335 330 327 326 326 329 332 329 329 328 328
317 317 318 323 323 324 323 323 324 326 327 325 325 325 326 325 321 310 311 313 314 318 327 327 316 313 311 315 311 314 316 326 332 331 330 330 330 331 332 333 327 325 323
315 315 315 319 321 321 323 322 320 322 322 322 320 319 321 323 319 317 317 316 315 316 316 317 320 320 318 325 324 321 323 327 331 332 332 333 332 328 329 331 331 329 327
315 315 314 313 311 312 319 321 321 321 319 319 319 319 317 316 316 306 306 311 310 308 305 312 317 321 324 324 324 324 322 323 327 330 332 330 329 330 329 330 330 329 328
313 314 313 313 313 313 311 312 314 314 306 306 304 310 316 308 303 297 296 295 296 298 308 312 313 318 321 323 322 323 324 323 324 327 330 332 330 329 329 331 330 329 327
311 312 312 312 313 312 309 309 316 316 304 300 299 301 302 303 297 295 295 294 294 296 302 308 311 315 319 322 324 324 324 325 326 326 327 329 330 329 325 329 330 329 328
312 311 311 311 312 311 310 309 310 313 314 316 299 301 297 296 295 295 295 297 310 300 302 307 310 314 318 321 324 324 326 328 328 329 329 330 330 329 327 327 328 327 325
311 310 311 311 311 311 313 312 310 309 315 315 312 305 303 298 297 296 295 309 313 315 317 315 315 316 319 322 323 325 325 326 328 329 329 330 330 329 327 327 327 318 319
309 312 312 311 313 315 318 318 318 318 318 315 314 312 311 308 310 312 315 315 315 315 316 316 318 319 322 323 324 326 327 327 328 329 329 329 329 328 328 327 326 323 324
309 309 312 311 312 313 314 316 320 320 319 318 312 310 300 309 313 314 315 315 315 316 317 317 318 318 321 323 324 325 326 326 327 327 328 327 327 326 325 325 324 324 322
310 308 308 310 312 311 314 314 315 315 314 313 311 310 297 308 311 313 313 314 315 317 318 317 317 318 318 318 318 321 323 324 325 326 325 325 324 324 323 323 322 321 320
310 309 307 306 309 310 312 314 313 313 314 313 312 313 309 311 313 312 313 313 315 315 315 316 316 316 318 318 318 318 317 317 318 323 322 321 320 321 321 320 320 319 318
304 303 304 306 307 308 308 310 312 309 312 313 312 309 309 311 312 312 312 314 315 315 313 311 312 315 316 316 316 317 317 318 319 319 320 317 316 314 316 316 316 315 315
303 303 304 304 306 308 308 307 311 312 313 313 312 311 310 309 309 311 309 312 314 315 314 314 315 314 311 310 314 312 298 291 309 303 317 316 315 315 315 314 312 310 309
304 305 304 304 304 307 305 305 311 312 312 312 313 312 311 308 307 308 309 312 313 310 311 311 311 314 310 309 307 295 291 289 302 296 313 315 312 312 313 312 310 308 306
Wind_Speed
12 14 12 5 4 6 6 5 5 2 7 10 12 11 11 11 10 9 8 8 8 6 6 7 8 5 4 4 3 3 4 4 6 2 3 3 3 3 1 2 3 3 3
12 5 11 8 11 11 8 6 4 5 5 4 6 10 11 11 10 10 10 9 8 8 7 6 7 4 7 6 5 5 4 5 4 5 3 3 4 4 4 4 3 3 4
13 15 12 12 4 3 8 5 8 3 2 5 2 6 9 9 10 10 10 9 9 8 9 8 8 6 5 4 5 6 5 5 5 3 4 2 2 3 3 3 3 3 3
14 11 9 10 12 11 8 15 10 8 6 3 8 10 7 8 11 10 10 9 8 8 8 7 7 7 8 7 6 8 6 6 6 5 3 3 2 2 3 3 2 2 3
6 6 9 6 11 15 13 7 9 10 15 14 12 10 7 8 8 9 10 9 9 7 8 9 8 9 11 9 5 6 6 5 4 4 3 3 3 3 5 3 3 2 2
4 4 3 5 4 5 6 7 10 8 7 6 6 7 9 7 10 12 11 9 8 8 8 7 7 10 9 12 13 12 10 7 6 4 3 4 5 4 3 4 4 3 3
2 4 4 4 5 5 8 8 10 9 7 11 11 9 8 7 9 11 13 7 9 9 9 8 7 7 9 7 10 13 11 13 7 8 6 7 5 8 7 5 5 4 4
7 4 2 3 5 5 6 8 7 7 7 7 6 6 5 2 9 9 10 6 5 7 9 9 8 7 7 8 7 7 8 8 9 6 7 6 6 6 9 9 10 5 2
6 5 4 3 5 5 5 6 6 5 5 3 3 6 6 5 6 7 5 4 5 8 4 6 7 7 9 10 6 7 7 8 6 9 10 9 9 9 8 7 5 5 3
5 4 4 6 6 4 4 6 3 3 3 4 4 4 6 2 3 8 7 4 5 4 5 5 10 8 10 11 9 8 9 10 7 4 4 5 8 7 16 10 8 7 3
4 4 5 6 5 5 4 3 2 2 3 4 3 3 5 6 7 10 11 5 5 6 4 5 3 8 12 12 14 10 13 8 8 8 5 4 3 4 7 5 8 7 4
6 5 5 4 3 3 5 5 4 4 3 4 3 3 2 4 6 4 4 7 2 3 6 4 1 3 4 8 7 13 7 5 5 6 5 5 6 7 7 7 8 6 6
7 7 6 4 5 5 5 5 4 5 5 4 3 3 2 3 5 11 11 8 5 1 4 7 4 7 7 6 8 12 12 6 6 7 8 9 9 10 8 6 5 4 3
6 7 6 6 4 6 3 2 2 3 3 4 3 2 3 3 3 3 3 3 3 0 1 4 6 7 10 10 6 9 5 6 8 9 8 8 6 5 8 7 8 7 6
6 6 6 2 3 4 3 4 3 3 2 3 3 4 2 1 1 3 1 2 3 3 4 3 4 4 5 6 6 6 5 5 6 7 7 7 8 8 9 8 8 7 8
6 5 4 5 4 3 4 6 6 6 4 2 3 3 1 1 3 0 5 6 7 6 2 4 6 6 6 5 5 6 6 8 7 7 7 7 8 10 9 8 8 9 10
5 6 5 5 5 5 3 3 3 3 5 5 6 5 5 4 3 5 6 6 7 3 3 5 7 7 8 7 7 6 7 7 7 7 8 8 9 9 9 11 10 10 9
6 7 4 5 5 3 4 3 3 3 2 3 3 3 7 5 4 7 6 5 2 3 3 6 7 7 8 8 8 7 7 6 7 8 9 9 9 10 9 11 11 11 10
5 5 5 5 4 3 4 4 3 3 4 2 0 0 3 5 6 7 3 1 4 5 6 6 6 7 7 7 8 8 9 8 8 9 9 9 9 10 10 11 11 13 12
6 8 6 5 4 5 4 5 5 3 1 1 2 2 0 2 2 2 1 2 4 5 6 7 7 8 7 7 8 8 7 8 8 8 8 9 9 9 10 12 12 11 11
4 5 5 4 3 3 1 3 3 3 2 0 0 1 2 1 2 2 3 3 4 5 6 7 7 6 6 6 6 7 7 7 8 8 8 8 9 8 8 9 9 11 10
4 4 4 4 4 3 2 1 0 1 2 2 2 2 1 2 2 2 3 3 3 4 4 5 5 7 6 6 5 6 7 9 8 7 8 9 9 8 9 10 10 11 12
4 5 5 5 5 4 3 4 3 3 3 4 4 3 2 2 2 3 3 3 3 3 3 3 3 5 7 7 5 5 4 4 3 2 5 4 4 7 8 9 11 11 11
4 5 5 5 5 4 5 5 5 5 4 4 4 3 4 4 4 4 4 3 3 3 3 3 2 3 4 6 7 6 6 6 6 7 8 7 8 8 7 7 6 9 8
4 5 5 5 5 7 5 6 5 5 5 5 5 5 5 4 4 4 4 4 4 4 4 3 3 3 4 3 4 7 10 8 8 9 5 8 8 10 7 7 7 8 9
5 6 6 5 5 6 5 6 6 6 6 5 6 5 5 5 5 4 4 4 4 4 4 3 3 3 2 3 2 3 5 7 5 9 6 5 6 4 4 5 7 6 6
Wind_Direction
236 207 195 126 103 125 110 90 114 67 224 185 192 192 193 188 187 182 191 193 191 201 208 211 222 208 198 186 186 185 188 177 202 230 217 219 199 213 162 133 172 140 188
250 62 74 58 50 39 334 120 71 94 66 358 211 192 187 189 185 182 196 198 189 199 208 206 229 205 205 186 180 207 203 206 187 209 208 202 182 193 172 160 158 167 179
136 119 125 101 12 200 167 278 132 167 75 312 2 240 194 186 190 188 197 195 190 206 211 200 219 206 229 209 198 193 202 200 207 198 227 189 141 157 148 137 155 166 180
131 135 185 186 167 211 196 154 167 161 174 213 270 254 211 191 198 186 196 202 193 200 212 201 208 200 213 216 212 214 198 193 206 215 204 207 157 168 131 146 182 180 185
81 155 169 236 163 176 196 194 174 178 192 209 235 231 204 201 198 189 200 208 207 192 205 215 211 207 204 210 202 216 199 203 185 193 198 180 180 171 192 162 177 125 234
122 122 159 165 162 173 172 192 234 229 253 225 240 236 224 211 193 198 200 199 218 201 205 206 217 219 216 222 221 219 199 196 208 192 201 195 191 193 142 167 148 162 227
130 159 193 195 192 169 177 188 198 208 210 209 212 200 208 233 205 207 217 208 205 210 213 199 216 224 210 213 231 236 218 215 193 190 196 206 186 187 161 170 177 177 196
51 63 200 199 215 189 184 184 203 185 220 208 193 165 173 225 243 231 230 234 222 218 217 209 206 220 212 204 218 221 222 219 222 202 205 207 209 184 182 185 190 176 81
40 35 20 34 232 216 204 205 218 181 195 209 202 187 182 162 256 265 208 223 260 241 219 233 206 213 224 211 209 227 235 237 227 233 215 203 205 191 163 131 159 163 184
28 21 20 20 27 32 195 195 207 179 152 112 107 93 117 111 285 242 220 195 227 213 231 205 221 231 217 205 203 210 232 234 204 194 233 245 228 209 179 185 168 184 143
4 24 38 34 15 17 25 345 115 70 56 87 103 179 197 214 219 215 196 193 211 233 225 232 207 234 231 232 212 206 229 215 217 202 203 197 199 186 192 191 183 178 163
20 3 7 33 15 15 24 18 34 51 20 2 25 312 313 81 26 333 227 220 353 242 246 204 216 163 140 234 208 235 261 254 199 188 190 199 198 202 203 197 189 190 193
16 13 356 338 2 10 20 27 53 57 76 63 53 34 32 84 65 45 39 8 340 252 299 307 321 247 281 247 228 240 228 219 216 203 204 206 206 206 185 189 178 194 196
22 15 16 13 337 328 346 4 46 92 86 89 82 49 8 37 34 19 11 350 330 66 323 291 265 252 242 225 211 237 215 205 210 229 222 217 207 178 188 187 195 180 200
7 0 355 359 353 334 301 239 222 246 175 165 172 153 139 70 209 237 271 314 311 310 311 250 239 217 211 223 226 222 203 211 218 219 219 211 211 201 200 182 189 185 200
353 352 334 324 330 338 343 334 247 210 171 175 140 128 136 142 58 316 303 279 267 268 244 261 276 271 260 242 226 231 218 204 208 218 220 224 217 209 203 195 195 192 198
349 339 331 336 337 327 348 8 335 360 206 192 169 193 206 193 311 334 322 315 278 164 245 266 255 253 256 252 242 221 224 214 212 213 223 223 226 218 197 198 194 196 197
345 318 318 293 293 296 281 267 232 236 268 286 191 227 228 245 334 322 333 327 330 214 244 256 257 251 251 249 245 242 243 231 224 232 231 228 224 221 205 200 194 192 187
353 337 329 325 329 320 335 332 280 219 213 201 117 140 243 298 309 303 88 354 309 310 317 301 265 256 253 253 254 248 241 238 237 234 228 223 221 213 210 201 196 191 171
336 329 349 338 352 11 359 14 29 57 118 167 157 192 78 42 342 304 319 312 297 298 305 303 296 294 277 257 251 248 247 241 234 224 225 227 214 207 214 199 192 179 180
304 314 340 322 329 350 51 47 9 27 8 346 259 223 216 186 298 310 316 307 308 319 316 308 312 311 306 285 269 264 257 250 239 233 229 216 207 200 197 194 166 170 156
298 316 325 312 300 331 306 191 200 136 243 199 213 215 193 211 277 272 261 269 297 304 314 317 335 333 328 318 305 283 263 258 243 225 221 210 201 193 183 173 166 158 155
283 293 296 303 282 261 253 245 231 216 202 221 215 178 178 246 263 266 270 274 266 279 301 317 332 339 341 339 355 358 357 9 345 259 198 163 168 166 161 156 160 158 153
286 282 291 288 299 265 221 238 225 221 226 222 214 210 205 206 223 243 254 269 274 277 269 297 330 354 356 3 350 2 22 18 24 55 70 62 71 73 79 89 97 105 108
294 304 299 281 294 286 242 250 223 218 213 219 206 221 240 236 205 217 253 245 265 276 262 264 283 310 334 47 54 13 349 20 53 41 45 64 70 71 62 66 84 87 86
295 294 281 288 277 269 240 230 226 219 217 214 230 220 212 210 229 240 232 236 250 263 277 278 275 251 215 307 33 39 27 355 22 54 54 49 74 57 77 91 107 100 116